False Pass, AK

4:09 PM HDT on June 26, 2017 (GMT -0900)
False Pass

Weather History for PAKF - December, 2012

Change the Weather History Date:

Sunday, December 9, 2012

  Actual Average (PACD) Record (PACD)
Temperature  
Mean Temperature 38 °F -  
Max Temperature 42 °F 35 °F 48 °F (2013)
Min Temperature 33 °F 26 °F 4 °F (1975)
Degree Days  
Heating Degree Days 28    
Moisture  
Dew Point 32 °F    
Average Humidity 79    
Maximum Humidity 93    
Minimum Humidity 65    
Precipitation  
Precipitation 0.05 in - - ()
Sea Level Pressure  
Sea Level Pressure 29.39 in    
Wind  
Wind Speed 16 mph (SSE)    
Max Wind Speed 25 mph    
Max Gust Speed 43 mph    
Visibility 9 miles    
Events Rain    
Averages and records for this station are not official NWS values.
T = Trace of Precipitation, MM = Missing Value Source: NWS Daily Summary

Daily Weather History Graph

Daily Weather History Graph

Search for Another Location

Airport or City:

Trip Planner

Search our weather history database for the weather conditions in past years. The results will help you decide how hot, cold, wet, or windy it might be!

Date:

Astronomy

Dec. 09, 2012 Rise Set
Actual Time 9:06 AM HST 4:26 PM HST
Civil Twilight 8:21 AM HST 5:11 PM HST
Nautical Twilight 7:34 AM HST 5:58 PM HST
Astronomical Twilight 6:50 AM HST 6:42 PM HST
Moon 4:23 AM HST (12/9) 2:07 PM HST (12/9)
Length of Visible Light 8h 49m
Length of Day
7h 20m
Waning Crescent, 17% of the Moon is Illuminated
Dec 9
Waning Crescent
Dec 12
New
Dec 19
First Quarter
Dec 28
Full
Jan 4
Last Quarter

Hourly Weather History & Observations

Time (HST) Temp. Windchill Dew Point Humidity Pressure Visibility Wind Dir Wind Speed Gust Speed Precip Events Conditions
12:01 AM 41.0 °F 32.5 °F 37.0 °F 86% 28.98 in 10.0 mi SSE 17.3 mph 32.2 mph 0.03 in Rain Light Rain
12:47 AM 42.8 °F 33.8 °F 35.6 °F 76% 28.75 in 10.0 mi SSE 21.9 mph 38.0 mph 0.01 in Rain Light Rain
1:01 AM 42.1 °F 32.6 °F 35.1 °F 76% 29.04 in 10.0 mi SSE 23.0 mph 36.8 mph 0.01 in Rain Light Rain
2:01 AM 41.0 °F 30.7 °F 36.0 °F 82% 29.11 in 5.0 mi South 25.3 mph 42.6 mph 0.01 in Rain Light Rain
3:01 AM 42.1 °F 34.2 °F 35.1 °F 76% 29.18 in 9.0 mi South 16.1 mph 36.8 mph 0.01 in Rain Light Rain
3:22 AM 42.8 °F 33.5 °F 35.6 °F 76% 28.93 in 10.0 mi South 23.0 mph 34.5 mph 0.00 in Rain Light Rain
3:48 AM 41.0 °F 31.9 °F 35.6 °F 81% 28.96 in 10.0 mi SSE 19.6 mph 33.4 mph 0.00 in Rain Light Rain
4:01 AM 39.9 °F 29.2 °F 35.1 °F 83% 29.25 in 10.0 mi South 25.3 mph 40.3 mph 0.00 in Rain Light Rain
4:27 AM 39.2 °F 28.7 °F 33.8 °F 81% 28.99 in 7.0 mi South 23.0 mph 38.0 mph 0.01 in Rain Light Rain
4:53 AM 39.2 °F 28.7 °F 33.8 °F 81% 29.02 in 8.0 mi South 23.0 mph 36.8 mph 0.01 in Rain Light Rain
5:01 AM 39.0 °F 29.9 °F 34.0 °F 82% 29.30 in 7.0 mi SSE 17.3 mph 32.2 mph 0.01 in Rain Light Rain
5:13 AM 39.2 °F 30.5 °F 33.8 °F 81% 29.03 in 10.0 mi SSE 16.1 mph 31.1 mph 0.00 in Rain Light Rain
5:50 AM 39.2 °F 30.5 °F 32.0 °F 75% 29.06 in 10.0 mi SSE 16.1 mph 25.3 mph 0.00 in Rain Light Rain
6:01 AM 39.0 °F 30.3 °F 33.1 °F 79% 29.35 in 10.0 mi SSE 16.1 mph 26.5 mph 0.00 in Rain Light Rain
7:01 AM 37.0 °F 27.0 °F 33.1 °F 86% 29.40 in 9.0 mi SSE 18.4 mph 24.2 mph 0.01 in Rain Light Rain
7:36 AM 37.4 °F 26.9 °F 32.0 °F 81% 29.14 in 8.0 mi South 20.7 mph 33.4 mph 0.01 in Rain Light Rain
8:15 AM 35.6 °F 29.9 °F 33.8 °F 93% 29.18 in 10.0 mi NW 6.9 mph - 0.00 in Rain Light Rain
9:01 AM 36.0 °F 28.5 °F 33.1 °F 89% 29.50 in 10.0 mi North 10.4 mph - 0.00 in   Overcast
9:45 AM 35.6 °F 29.9 °F 32.0 °F 87% 29.27 in 10.0 mi East 6.9 mph - 0.00 in Rain Light Rain
10:01 AM 36.0 °F 30.3 °F 32.0 °F 86% 29.56 in 9.0 mi NNE 6.9 mph - 0.00 in   Overcast
10:37 AM 33.8 °F 27.0 °F 32.0 °F 93% 29.31 in 10.0 mi ESE 8.1 mph - 0.00 in Rain Light Rain
11:01 AM 36.0 °F 29.0 °F 30.0 °F 79% 29.61 in 10.0 mi SSE 9.2 mph - 0.00 in   Overcast
12:01 PM 37.0 °F 29.8 °F 28.9 °F 73% 29.65 in 10.0 mi South 10.4 mph 20.7 mph 0.00 in   Overcast
1:01 PM 37.9 °F 29.2 °F 30.0 °F 73% 29.67 in 10.0 mi SSE 15.0 mph 19.6 mph 0.00 in   Partly Cloudy
2:01 PM 37.9 °F 34.4 °F 30.0 °F 73% 29.70 in 10.0 mi Variable 4.6 mph - N/A   Overcast
3:01 PM 37.9 °F 32.7 °F 28.9 °F 70% 29.72 in 10.0 mi Variable 6.9 mph - N/A   Overcast
4:01 PM 37.0 °F 33.3 °F 30.0 °F 76% 29.75 in 10.0 mi WNW 4.6 mph - 0.00 in Rain Light Rain
5:01 PM 36.0 °F - 30.0 °F 79% 29.78 in 10.0 mi Calm Calm - 0.00 in   Mostly Cloudy
6:01 PM 35.1 °F - 28.9 °F 78% 29.81 in 10.0 mi Calm Calm - 0.00 in   Overcast
7:01 PM 37.0 °F 34.5 °F 26.1 °F 65% 29.83 in 10.0 mi SSE 3.5 mph - N/A   Mostly Cloudy
8:01 PM 36.0 °F - 27.0 °F 70% 29.85 in 10.0 mi Calm Calm - 0.00 in Rain Light Rain
9:01 PM 36.0 °F 32.1 °F 27.0 °F 70% 29.87 in 10.0 mi SE 4.6 mph - 0.00 in Rain Light Rain
10:01 PM 37.0 °F 34.5 °F 27.0 °F 67% 29.88 in 10.0 mi Variable 3.5 mph - 0.00 in Rain Light Rain
11:01 PM 37.0 °F 33.3 °F 27.0 °F 67% 29.91 in 8.0 mi Variable 4.6 mph 18.4 mph 0.00 in Rain Light Rain